Time,TemperatureF,DewpointF,PressureIn,WindDirection,WindDirectionDegrees,WindSpeedMPH,WindSpeedGustMPH,Humidity,HourlyPrecipIn,Conditions,Clouds,dailyrainin,SoftwareType,DateUTC
2013-01-25 00:01:00,13.7,4.5,30.52,West,261,1.0,3.0,66,0.00,,,0.00,WUHU216DAVISVP2,2013-01-25 05:01:00,
2013-01-25 00:02:00,13.8,4.6,30.53,West,261,1.0,3.0,66,0.00,,,0.00,WUHU216DAVISVP2,2013-01-25 05:02:00,
2013-01-25 00:03:00,13.8,4.6,30.53,West,261,1.0,3.0,66,0.00,,,0.00,WUHU216DAVISVP2,2013-01-25 05:03:00,
2013-01-25 00:08:00,14.0,4.4,30.52,West,261,0.0,2.0,65,0.00,,,0.00,WUHU216DAVISVP2,2013-01-25 05:08:00,
2013-01-25 00:13:00,14.0,4.4,30.52,West,261,0.0,2.0,65,0.00,,,0.00,WUHU216DAVISVP2,2013-01-25 05:13:00,
2013-01-25 00:18:00,13.8,4.6,30.53,West,261,0.0,2.0,66,0.00,,,0.00,WUHU216DAVISVP2,2013-01-25 05:18:00,
2013-01-25 00:23:00,13.6,4.4,30.52,West,261,0.0,1.0,66,0.00,,,0.00,WUHU216DAVISVP2,2013-01-25 05:23:00,
2013-01-25 00:28:00,13.4,4.5,30.52,West,261,0.0,1.0,67,0.00,,,0.00,WUHU216DAVISVP2,2013-01-25 05:28:00,
2013-01-25 00:33:00,13.2,4.6,30.52,West,261,0.0,1.0,68,0.00,,,0.00,WUHU216DAVISVP2,2013-01-25 05:33:00,
2013-01-25 00:38:00,12.9,4.3,30.52,West,261,0.0,1.0,68,0.00,,,0.00,WUHU216DAVISVP2,2013-01-25 05:38:00,
2013-01-25 00:43:00,12.7,4.2,30.52,West,261,0.0,1.0,68,0.00,,,0.00,WUHU216DAVISVP2,2013-01-25 05:43:00,
2013-01-25 00:48:00,12.6,4.4,30.52,West,261,0.0,1.0,69,0.00,,,0.00,WUHU216DAVISVP2,2013-01-25 05:48:00,
2013-01-25 00:53:00,12.4,4.2,30.52,West,261,0.0,1.0,69,0.00,,,0.00,WUHU216DAVISVP2,2013-01-25 05:53:00,
2013-01-25 00:58:00,12.3,4.4,30.52,West,261,0.0,2.0,70,0.00,,,0.00,WUHU216DAVISVP2,2013-01-25 05:58:00,
2013-01-25 01:03:00,12.2,4.3,30.52,West,261,0.0,3.0,70,0.00,,,0.00,WUHU216DAVISVP2,2013-01-25 06:03:00,
2013-01-25 01:08:00,12.1,4.2,30.52,West,261,0.0,3.0,70,0.00,,,0.00,WUHU216DAVISVP2,2013-01-25 06:08:00,
2013-01-25 01:13:00,12.1,4.2,30.52,West,261,0.0,3.0,70,0.00,,,0.00,WUHU216DAVISVP2,2013-01-25 06:13:00,
2013-01-25 01:18:00,12.1,4.2,30.52,West,261,0.0,2.0,70,0.00,,,0.00,WUHU216DAVISVP2,2013-01-25 06:18:00,
2013-01-25 01:23:00,12.4,4.2,30.52,West,261,2.0,2.0,69,0.00,,,0.00,WUHU216DAVISVP2,2013-01-25 06:23:00,
2013-01-25 01:28:00,12.7,4.5,30.52,West,261,0.0,2.0,69,0.00,,,0.00,WUHU216DAVISVP2,2013-01-25 06:28:00,
2013-01-25 01:33:00,12.7,4.5,30.51,West,261,0.0,2.0,69,0.00,,,0.00,WUHU216DAVISVP2,2013-01-25 06:33:00,
2013-01-25 01:38:00,12.8,4.3,30.51,West,261,0.0,2.0,68,0.00,,,0.00,WUHU216DAVISVP2,2013-01-25 06:38:00,
2013-01-25 01:43:00,12.8,4.6,30.51,West,261,0.0,1.0,69,0.00,,,0.00,WUHU216DAVISVP2,2013-01-25 06:43:00,
2013-01-25 01:48:00,12.8,4.6,30.51,West,261,0.0,1.0,69,0.00,,,0.00,WUHU216DAVISVP2,2013-01-25 06:48:00,
2013-01-25 01:53:00,12.7,4.5,30.51,West,261,0.0,1.0,69,0.00,,,0.00,WUHU216DAVISVP2,2013-01-25 06:53:00,
2013-01-25 01:58:00,12.5,4.3,30.51,West,261,0.0,0.0,69,0.00,,,0.00,WUHU216DAVISVP2,2013-01-25 06:58:00,
2013-01-25 02:03:00,12.4,4.5,30.51,West,261,0.0,0.0,70,0.00,,,0.00,WUHU216DAVISVP2,2013-01-25 07:03:00,
2013-01-25 02:08:00,12.3,4.7,30.52,West,261,0.0,1.0,71,0.00,,,0.00,WUHU216DAVISVP2,2013-01-25 07:08:00,
2013-01-25 02:13:00,12.3,4.4,30.51,West,261,0.0,1.0,70,0.00,,,0.00,WUHU216DAVISVP2,2013-01-25 07:13:00,
2013-01-25 02:18:00,12.2,4.6,30.52,West,261,0.0,1.0,71,0.00,,,0.00,WUHU216DAVISVP2,2013-01-25 07:18:00,
2013-01-25 02:23:00,12.0,4.7,30.52,West,261,0.0,1.0,72,0.00,,,0.00,WUHU216DAVISVP2,2013-01-25 07:23:00,
2013-01-25 02:28:00,11.9,4.6,30.52,West,261,0.0,0.0,72,0.00,,,0.00,WUHU216DAVISVP2,2013-01-25 07:28:00,
2013-01-25 02:33:00,11.9,4.6,30.51,West,261,0.0,1.0,72,0.00,,,0.00,WUHU216DAVISVP2,2013-01-25 07:33:00,
2013-01-25 02:38:00,11.9,4.3,30.51,West,261,0.0,1.0,71,0.00,,,0.00,WUHU216DAVISVP2,2013-01-25 07:38:00,
2013-01-25 02:43:00,11.8,4.2,30.51,West,261,0.0,1.0,71,0.00,,,0.00,WUHU216DAVISVP2,2013-01-25 07:43:00,
2013-01-25 02:48:00,11.7,4.2,30.51,West,261,0.0,1.0,71,0.00,,,0.00,WUHU216DAVISVP2,2013-01-25 07:48:00,
2013-01-25 02:54:00,11.6,4.1,30.51,West,261,0.0,1.0,71,0.00,,,0.00,WUHU216DAVISVP2,2013-01-25 07:54:00,
2013-01-25 02:59:00,11.5,4.0,30.52,West,261,0.0,1.0,71,0.00,,,0.00,WUHU216DAVISVP2,2013-01-25 07:59:00,
2013-01-25 03:05:00,11.4,4.2,30.51,West,261,0.0,1.0,72,0.00,,,0.00,WUHU216DAVISVP2,2013-01-25 08:05:00,
2013-01-25 03:10:00,11.3,4.1,30.51,West,261,0.0,0.0,72,0.00,,,0.00,WUHU216DAVISVP2,2013-01-25 08:10:00,
2013-01-25 03:15:00,11.3,4.1,30.50,West,261,0.0,0.0,72,0.00,,,0.00,WUHU216DAVISVP2,2013-01-25 08:15:00,
2013-01-25 03:20:00,11.4,4.5,30.50,West,261,0.0,1.0,73,0.00,,,0.00,WUHU216DAVISVP2,2013-01-25 08:20:00,
2013-01-25 03:25:00,11.6,4.7,30.50,West,261,0.0,1.0,73,0.00,,,0.00,WUHU216DAVISVP2,2013-01-25 08:25:00,
2013-01-25 03:30:00,11.7,4.5,30.51,West,261,0.0,1.0,72,0.00,,,0.00,WUHU216DAVISVP2,2013-01-25 08:30:00,
2013-01-25 03:35:00,11.8,4.6,30.51,West,261,0.0,1.0,72,0.00,,,0.00,WUHU216DAVISVP2,2013-01-25 08:35:00,
2013-01-25 03:40:00,11.8,4.6,30.50,West,261,0.0,0.0,72,0.00,,,0.00,WUHU216DAVISVP2,2013-01-25 08:40:00,
2013-01-25 03:45:00,11.7,4.8,30.50,West,261,0.0,0.0,73,0.00,,,0.00,WUHU216DAVISVP2,2013-01-25 08:45:00,
2013-01-25 03:50:00,11.6,4.7,30.50,West,261,0.0,0.0,73,0.00,,,0.00,WUHU216DAVISVP2,2013-01-25 08:50:00,
2013-01-25 03:55:00,11.7,5.0,30.50,West,261,0.0,0.0,74,0.00,,,0.00,WUHU216DAVISVP2,2013-01-25 08:55:00,
2013-01-25 04:00:00,11.8,4.8,30.49,West,261,0.0,0.0,73,0.00,,,0.00,WUHU216DAVISVP2,2013-01-25 09:00:00,
2013-01-25 04:05:00,11.9,4.9,30.49,West,261,0.0,0.0,73,0.00,,,0.00,WUHU216DAVISVP2,2013-01-25 09:05:00,
2013-01-25 04:10:00,12.0,5.0,30.48,West,261,0.0,0.0,73,0.00,,,0.00,WUHU216DAVISVP2,2013-01-25 09:10:00,
2013-01-25 04:15:00,12.0,5.0,30.49,West,261,0.0,0.0,73,0.00,,,0.00,WUHU216DAVISVP2,2013-01-25 09:15:00,
2013-01-25 04:20:00,12.1,5.1,30.49,West,261,0.0,0.0,73,0.00,,,0.00,WUHU216DAVISVP2,2013-01-25 09:20:00,
2013-01-25 04:25:00,12.2,5.5,30.49,West,261,0.0,1.0,74,0.00,,,0.00,WUHU216DAVISVP2,2013-01-25 09:25:00,
2013-01-25 04:30:00,12.2,5.5,30.49,West,261,0.0,1.0,74,0.00,,,0.00,WUHU216DAVISVP2,2013-01-25 09:30:00,
2013-01-25 04:35:00,12.2,5.5,30.49,West,261,0.0,1.0,74,0.00,,,0.00,WUHU216DAVISVP2,2013-01-25 09:35:00,
2013-01-25 04:40:00,12.2,5.5,30.50,West,261,0.0,1.0,74,0.00,,,0.00,WUHU216DAVISVP2,2013-01-25 09:40:00,
2013-01-25 04:45:00,11.9,5.2,30.49,West,261,0.0,1.0,74,0.00,,,0.00,WUHU216DAVISVP2,2013-01-25 09:45:00,
2013-01-25 04:50:00,11.8,5.1,30.49,West,261,0.0,1.0,74,0.00,,,0.00,WUHU216DAVISVP2,2013-01-25 09:50:00,
2013-01-25 04:55:00,11.8,5.1,30.50,West,261,0.0,1.0,74,0.00,,,0.00,WUHU216DAVISVP2,2013-01-25 09:55:00,
2013-01-25 05:00:00,11.9,5.2,30.49,West,261,0.0,1.0,74,0.00,,,0.00,WUHU216DAVISVP2,2013-01-25 10:00:00,
2013-01-25 05:05:00,12.1,5.1,30.50,West,261,0.0,0.0,73,0.00,,,0.00,WUHU216DAVISVP2,2013-01-25 10:05:00,
2013-01-25 05:10:00,12.1,5.1,30.49,West,261,0.0,0.0,73,0.00,,,0.00,WUHU216DAVISVP2,2013-01-25 10:10:00,
2013-01-25 05:15:00,12.2,5.2,30.49,West,261,0.0,0.0,73,0.00,,,0.00,WUHU216DAVISVP2,2013-01-25 10:15:00,
2013-01-25 05:20:00,12.2,5.2,30.49,West,261,0.0,1.0,73,0.00,,,0.00,WUHU216DAVISVP2,2013-01-25 10:20:00,
2013-01-25 05:25:00,12.4,5.4,30.48,West,261,0.0,1.0,73,0.00,,,0.00,WUHU216DAVISVP2,2013-01-25 10:25:00,
2013-01-25 05:30:00,12.5,5.5,30.49,West,261,0.0,1.0,73,0.00,,,0.00,WUHU216DAVISVP2,2013-01-25 10:30:00,
2013-01-25 05:35:00,12.5,5.5,30.50,West,261,0.0,1.0,73,0.00,,,0.00,WUHU216DAVISVP2,2013-01-25 10:35:00,
2013-01-25 05:40:00,12.6,5.6,30.49,West,261,0.0,1.0,73,0.00,,,0.00,WUHU216DAVISVP2,2013-01-25 10:40:00,
2013-01-25 05:45:00,12.6,5.6,30.49,West,261,0.0,0.0,73,0.00,,,0.00,WUHU216DAVISVP2,2013-01-25 10:45:00,
2013-01-25 05:50:00,12.7,5.7,30.48,West,261,0.0,0.0,73,0.00,,,0.00,WUHU216DAVISVP2,2013-01-25 10:50:00,
2013-01-25 05:55:00,12.7,5.7,30.48,West,261,0.0,0.0,73,0.00,,,0.00,WUHU216DAVISVP2,2013-01-25 10:55:00,
2013-01-25 06:00:00,12.8,5.8,30.48,West,261,0.0,0.0,73,0.00,,,0.00,WUHU216DAVISVP2,2013-01-25 11:00:00,
2013-01-25 06:05:00,12.8,5.8,30.49,West,261,0.0,0.0,73,0.00,,,0.00,WUHU216DAVISVP2,2013-01-25 11:05:00,
2013-01-25 06:10:00,13.2,6.2,30.49,West,261,0.0,1.0,73,0.00,,,0.00,WUHU216DAVISVP2,2013-01-25 11:10:00,
2013-01-25 06:15:00,13.5,6.5,30.48,West,261,0.0,1.0,73,0.00,,,0.00,WUHU216DAVISVP2,2013-01-25 11:15:00,
2013-01-25 06:20:00,13.8,6.5,30.49,West,261,0.0,1.0,72,0.00,,,0.00,WUHU216DAVISVP2,2013-01-25 11:20:00,
2013-01-25 06:25:00,14.0,6.7,30.48,West,261,0.0,1.0,72,0.00,,,0.00,WUHU216DAVISVP2,2013-01-25 11:25:00,
2013-01-25 06:30:00,14.1,6.5,30.48,West,261,0.0,0.0,71,0.00,,,0.00,WUHU216DAVISVP2,2013-01-25 11:30:00,
2013-01-25 06:35:00,14.3,6.7,30.48,West,261,0.0,0.0,71,0.00,,,0.00,WUHU216DAVISVP2,2013-01-25 11:35:00,
2013-01-25 06:40:00,14.4,6.4,30.47,West,261,0.0,1.0,70,0.00,,,0.00,WUHU216DAVISVP2,2013-01-25 11:40:00,
2013-01-25 06:45:00,14.5,6.9,30.47,West,261,0.0,1.0,71,0.00,,,0.00,WUHU216DAVISVP2,2013-01-25 11:45:00,
2013-01-25 06:50:00,14.6,6.9,30.48,West,261,0.0,1.0,71,0.00,,,0.00,WUHU216DAVISVP2,2013-01-25 11:50:00,
2013-01-25 06:55:00,14.7,6.7,30.48,West,261,0.0,1.0,70,0.00,,,0.00,WUHU216DAVISVP2,2013-01-25 11:55:00,
2013-01-25 07:00:00,14.9,6.9,30.48,West,261,0.0,0.0,70,0.00,,,0.00,WUHU216DAVISVP2,2013-01-25 12:00:00,
2013-01-25 07:06:00,15.2,6.9,30.48,West,261,0.0,1.0,69,0.00,,,0.00,WUHU216DAVISVP2,2013-01-25 12:06:00,
2013-01-25 07:11:00,15.4,7.1,30.48,West,261,0.0,1.0,69,0.00,,,0.00,WUHU216DAVISVP2,2013-01-25 12:11:00,
2013-01-25 07:16:00,15.6,7.3,30.47,West,261,0.0,1.0,69,0.00,,,0.00,WUHU216DAVISVP2,2013-01-25 12:16:00,
2013-01-25 07:21:00,15.8,7.2,30.47,West,261,0.0,1.0,68,0.00,,,0.00,WUHU216DAVISVP2,2013-01-25 12:21:00,
2013-01-25 07:26:00,15.9,6.9,30.48,West,261,0.0,1.0,67,0.00,,,0.00,WUHU216DAVISVP2,2013-01-25 12:26:00,
2013-01-25 07:31:00,16.1,6.8,30.47,West,261,0.0,1.0,66,0.00,,,0.00,WUHU216DAVISVP2,2013-01-25 12:31:00,
2013-01-25 07:36:00,16.3,7.3,30.47,West,261,0.0,1.0,67,0.00,,,0.00,WUHU216DAVISVP2,2013-01-25 12:36:00,
2013-01-25 07:41:00,16.3,7.0,30.47,West,261,0.0,1.0,66,0.00,,,0.00,WUHU216DAVISVP2,2013-01-25 12:41:00,
2013-01-25 07:46:00,16.5,6.8,30.48,West,261,0.0,2.0,65,0.00,,,0.00,WUHU216DAVISVP2,2013-01-25 12:46:00,
2013-01-25 07:51:00,16.7,7.0,30.47,West,261,0.0,2.0,65,0.00,,,0.00,WUHU216DAVISVP2,2013-01-25 12:51:00,
2013-01-25 07:56:00,16.8,7.5,30.48,West,261,0.0,2.0,66,0.00,,,0.00,WUHU216DAVISVP2,2013-01-25 12:56:00,
2013-01-25 08:01:00,16.8,7.5,30.48,West,261,0.0,2.0,66,0.00,,,0.00,WUHU216DAVISVP2,2013-01-25 13:01:00,
2013-01-25 08:06:00,16.8,7.8,30.48,West,261,0.0,2.0,67,0.00,,,0.00,WUHU216DAVISVP2,2013-01-25 13:06:00,
2013-01-25 08:11:00,16.8,7.8,30.48,West,261,0.0,2.0,67,0.00,,,0.00,WUHU216DAVISVP2,2013-01-25 13:11:00,
2013-01-25 08:16:00,17.0,7.6,30.48,West,261,1.0,2.0,66,0.00,,,0.00,WUHU216DAVISVP2,2013-01-25 13:16:00,
2013-01-25 08:21:00,17.2,7.8,30.48,West,261,0.0,2.0,66,0.00,,,0.00,WUHU216DAVISVP2,2013-01-25 13:21:00,
2013-01-25 08:26:00,17.3,7.9,30.48,West,261,1.0,2.0,66,0.00,,,0.00,WUHU216DAVISVP2,2013-01-25 13:26:00,
2013-01-25 08:31:00,17.5,8.1,30.48,West,261,0.0,2.0,66,0.00,,,0.00,WUHU216DAVISVP2,2013-01-25 13:31:00,
2013-01-25 08:36:00,17.7,8.3,30.48,West,261,0.0,2.0,66,0.00,,,0.00,WUHU216DAVISVP2,2013-01-25 13:36:00,
2013-01-25 08:41:00,17.9,8.5,30.47,West,261,0.0,2.0,66,0.00,,,0.00,WUHU216DAVISVP2,2013-01-25 13:41:00,
2013-01-25 08:46:00,18.1,8.0,30.47,West,261,1.0,2.0,64,0.00,,,0.00,WUHU216DAVISVP2,2013-01-25 13:46:00,
2013-01-25 08:51:00,18.2,8.1,30.47,West,261,1.0,2.0,64,0.00,,,0.00,WUHU216DAVISVP2,2013-01-25 13:51:00,
2013-01-25 08:56:00,18.4,8.3,30.47,West,261,2.0,3.0,64,0.00,,,0.00,WUHU216DAVISVP2,2013-01-25 13:56:00,
2013-01-25 09:01:00,18.5,8.7,30.47,West,261,0.0,3.0,65,0.00,,,0.00,WUHU216DAVISVP2,2013-01-25 14:01:00,
2013-01-25 09:06:00,18.7,8.6,30.46,West,261,0.0,3.0,64,0.00,,,0.00,WUHU216DAVISVP2,2013-01-25 14:06:00,
2013-01-25 09:11:00,18.9,8.8,30.46,West,261,0.0,3.0,64,0.00,,,0.00,WUHU216DAVISVP2,2013-01-25 14:11:00,
2013-01-25 09:16:00,19.0,8.5,30.46,West,261,0.0,3.0,63,0.00,,,0.00,WUHU216DAVISVP2,2013-01-25 14:16:00,
2013-01-25 09:21:00,19.2,8.7,30.45,West,261,0.0,1.0,63,0.00,,,0.00,WUHU216DAVISVP2,2013-01-25 14:21:00,
2013-01-25 09:27:00,19.3,8.4,30.45,West,261,0.0,1.0,62,0.00,,,0.00,WUHU216DAVISVP2,2013-01-25 14:27:00,
2013-01-25 09:32:00,19.4,7.8,30.44,West,261,1.0,1.0,60,0.00,,,0.00,WUHU216DAVISVP2,2013-01-25 14:32:00,
2013-01-25 09:37:00,19.5,6.7,30.44,West,261,0.0,1.0,57,0.00,,,0.00,WUHU216DAVISVP2,2013-01-25 14:37:00,
2013-01-25 09:42:00,19.5,6.7,30.44,West,261,0.0,1.0,57,0.00,,,0.00,WUHU216DAVISVP2,2013-01-25 14:42:00,
2013-01-25 09:47:00,19.5,6.3,30.44,West,261,0.0,2.0,56,0.00,,,0.00,WUHU216DAVISVP2,2013-01-25 14:47:00,
2013-01-25 09:52:00,19.7,6.5,30.43,SW,223,0.0,3.0,56,0.00,,,0.00,WUHU216DAVISVP2,2013-01-25 14:52:00,
2013-01-25 09:57:00,19.8,6.2,30.43,SSE,164,0.0,3.0,55,0.00,,,0.00,WUHU216DAVISVP2,2013-01-25 14:57:00,
2013-01-25 10:02:00,20.0,6.4,30.43,SSE,162,0.0,3.0,55,0.00,,,0.00,WUHU216DAVISVP2,2013-01-25 15:02:00,
2013-01-25 10:07:00,20.1,5.2,30.42,ESE,123,0.0,3.0,52,0.00,,,0.00,WUHU216DAVISVP2,2013-01-25 15:07:00,
2013-01-25 10:12:00,20.2,5.8,30.42,WSW,254,2.0,3.0,53,0.00,,,0.00,WUHU216DAVISVP2,2013-01-25 15:12:00,
2013-01-25 10:17:00,20.5,5.6,30.43,WSW,254,0.0,3.0,52,0.00,,,0.00,WUHU216DAVISVP2,2013-01-25 15:17:00,
2013-01-25 10:22:00,20.7,6.6,30.43,WSW,254,0.0,3.0,54,0.00,,,0.00,WUHU216DAVISVP2,2013-01-25 15:22:00,
2013-01-25 10:27:00,20.9,6.0,30.42,WSW,242,0.0,3.0,52,0.00,,,0.00,WUHU216DAVISVP2,2013-01-25 15:27:00,
2013-01-25 10:32:00,21.1,5.3,30.43,WSW,242,0.0,2.0,50,0.00,,,0.00,WUHU216DAVISVP2,2013-01-25 15:32:00,
2013-01-25 10:37:00,21.2,5.8,30.43,ESE,105,0.0,3.0,51,0.00,,,0.00,WUHU216DAVISVP2,2013-01-25 15:37:00,
2013-01-25 10:42:00,21.2,4.9,30.43,SSE,154,0.0,3.0,49,0.00,,,0.00,WUHU216DAVISVP2,2013-01-25 15:42:00,
2013-01-25 10:47:00,21.2,5.8,30.42,West,259,0.0,3.0,51,0.00,,,0.00,WUHU216DAVISVP2,2013-01-25 15:47:00,
2013-01-25 10:52:00,21.2,5.8,30.41,WSW,257,0.0,3.0,51,0.00,,,0.00,WUHU216DAVISVP2,2013-01-25 15:52:00,
2013-01-25 10:57:00,21.3,5.5,30.41,WSW,240,1.0,3.0,50,0.00,,,0.00,WUHU216DAVISVP2,2013-01-25 15:57:00,
2013-01-25 11:02:00,21.3,5.5,30.41,WSW,240,0.0,3.0,50,0.00,,,0.00,WUHU216DAVISVP2,2013-01-25 16:02:00,
2013-01-25 11:07:00,21.4,5.6,30.40,WSW,240,0.0,2.0,50,0.00,,,0.00,WUHU216DAVISVP2,2013-01-25 16:07:00,
2013-01-25 11:12:00,21.5,5.2,30.40,WSW,240,0.0,2.0,49,0.00,,,0.00,WUHU216DAVISVP2,2013-01-25 16:12:00,
2013-01-25 11:17:00,21.7,6.3,30.40,WSW,240,0.0,2.0,51,0.00,,,0.00,WUHU216DAVISVP2,2013-01-25 16:17:00,
2013-01-25 11:22:00,21.9,6.0,30.40,WSW,240,0.0,2.0,50,0.00,,,0.00,WUHU216DAVISVP2,2013-01-25 16:22:00,
2013-01-25 11:27:00,22.0,6.1,30.39,WSW,240,0.0,2.0,50,0.00,,,0.00,WUHU216DAVISVP2,2013-01-25 16:27:00,
2013-01-25 11:32:00,22.0,5.2,30.39,SW,220,0.0,3.0,48,0.00,,,0.00,WUHU216DAVISVP2,2013-01-25 16:32:00,
2013-01-25 11:37:00,22.0,5.2,30.39,WSW,252,0.0,3.0,48,0.00,,,0.00,WUHU216DAVISVP2,2013-01-25 16:37:00,
2013-01-25 11:42:00,22.1,5.8,30.38,WSW,244,1.0,3.0,49,0.00,,,0.00,WUHU216DAVISVP2,2013-01-25 16:42:00,
2013-01-25 11:47:00,22.1,5.3,30.39,WSW,244,0.0,3.0,48,0.00,,,0.00,WUHU216DAVISVP2,2013-01-25 16:47:00,
2013-01-25 11:52:00,22.2,6.3,30.38,East,86,1.0,3.0,50,0.00,,,0.00,WUHU216DAVISVP2,2013-01-25 16:52:00,
2013-01-25 11:57:00,22.4,6.0,30.38,SW,226,2.0,3.0,49,0.00,,,0.00,WUHU216DAVISVP2,2013-01-25 16:57:00,
2013-01-25 12:02:00,22.5,7.0,30.37,SW,215,0.0,3.0,51,0.00,,,0.00,WUHU216DAVISVP2,2013-01-25 17:02:00,
2013-01-25 12:07:00,22.7,6.8,30.37,SSW,205,0.0,3.0,50,0.00,,,0.00,WUHU216DAVISVP2,2013-01-25 17:07:00,
2013-01-25 12:12:00,22.8,7.3,30.36,SSW,205,0.0,3.0,51,0.00,,,0.00,WUHU216DAVISVP2,2013-01-25 17:12:00,
2013-01-25 12:17:00,22.8,5.9,30.35,ESE,109,1.0,3.0,48,0.00,,,0.00,WUHU216DAVISVP2,2013-01-25 17:17:00,
2013-01-25 12:22:00,22.7,5.4,30.35,East,98,0.0,3.0,47,0.00,,,0.00,WUHU216DAVISVP2,2013-01-25 17:22:00,
2013-01-25 12:27:00,22.6,6.7,30.34,East,98,0.0,3.0,50,0.00,,,0.00,WUHU216DAVISVP2,2013-01-25 17:27:00,
2013-01-25 12:32:00,22.7,6.3,30.34,ESE,103,0.0,3.0,49,0.00,,,0.00,WUHU216DAVISVP2,2013-01-25 17:32:00,
2013-01-25 12:37:00,22.8,6.4,30.33,SE,134,0.0,3.0,49,0.00,,,0.00,WUHU216DAVISVP2,2013-01-25 17:37:00,
2013-01-25 12:42:00,22.8,5.9,30.33,SE,129,1.0,3.0,48,0.00,,,0.00,WUHU216DAVISVP2,2013-01-25 17:42:00,
2013-01-25 12:47:00,22.7,4.9,30.32,ESE,111,0.0,3.0,46,0.00,,,0.00,WUHU216DAVISVP2,2013-01-25 17:47:00,
2013-01-25 12:52:00,22.6,5.3,30.31,ESE,111,0.0,3.0,47,0.00,,,0.00,WUHU216DAVISVP2,2013-01-25 17:52:00,
2013-01-25 12:57:00,22.7,5.4,30.31,East,96,0.0,3.0,47,0.00,,,0.00,WUHU216DAVISVP2,2013-01-25 17:57:00,
2013-01-25 13:02:00,22.7,5.4,30.30,East,101,2.0,3.0,47,0.00,,,0.00,WUHU216DAVISVP2,2013-01-25 18:02:00,
2013-01-25 13:07:00,22.8,5.5,30.30,East,95,3.0,3.0,47,0.00,,,0.00,WUHU216DAVISVP2,2013-01-25 18:07:00,
2013-01-25 13:12:00,22.7,5.4,30.29,SE,124,1.0,3.0,47,0.00,,,0.00,WUHU216DAVISVP2,2013-01-25 18:12:00,
2013-01-25 13:17:00,22.8,5.9,30.29,SE,124,1.0,3.0,48,0.00,,,0.00,WUHU216DAVISVP2,2013-01-25 18:17:00,
2013-01-25 13:22:00,22.9,6.0,30.28,ESE,123,0.0,3.0,48,0.00,,,0.00,WUHU216DAVISVP2,2013-01-25 18:22:00,
2013-01-25 13:27:00,22.9,6.0,30.28,ESE,122,1.0,3.0,48,0.00,,,0.00,WUHU216DAVISVP2,2013-01-25 18:27:00,
2013-01-25 13:32:00,22.9,6.0,30.28,ESE,121,1.0,3.0,48,0.00,,,0.00,WUHU216DAVISVP2,2013-01-25 18:32:00,
2013-01-25 13:37:00,23.0,6.1,30.27,SE,131,0.0,4.0,48,0.00,,,0.00,WUHU216DAVISVP2,2013-01-25 18:37:00,
2013-01-25 13:42:00,23.0,6.1,30.27,East,88,2.0,5.0,48,0.00,,,0.00,WUHU216DAVISVP2,2013-01-25 18:42:00,
2013-01-25 13:47:00,23.0,6.1,30.26,ESE,121,1.0,5.0,48,0.00,,,0.00,WUHU216DAVISVP2,2013-01-25 18:47:00,
2013-01-25 13:52:00,23.1,6.2,30.25,East,88,1.0,5.0,48,0.00,,,0.00,WUHU216DAVISVP2,2013-01-25 18:52:00,
2013-01-25 13:57:00,23.1,6.2,30.25,ESE,111,2.0,5.0,48,0.00,,,0.00,WUHU216DAVISVP2,2013-01-25 18:57:00,
2013-01-25 14:02:00,23.3,6.4,30.24,East,97,2.0,3.0,48,0.00,,,0.00,WUHU216DAVISVP2,2013-01-25 19:02:00,
2013-01-25 14:07:00,23.3,5.9,30.23,ESE,108,1.0,4.0,47,0.00,,,0.00,WUHU216DAVISVP2,2013-01-25 19:07:00,
2013-01-25 14:12:00,23.4,6.0,30.23,SW,227,0.0,4.0,47,0.00,,,0.00,WUHU216DAVISVP2,2013-01-25 19:12:00,
2013-01-25 14:17:00,23.5,6.1,30.23,East,99,2.0,4.0,47,0.00,,,0.00,WUHU216DAVISVP2,2013-01-25 19:17:00,
2013-01-25 14:22:00,23.5,6.6,30.23,East,91,1.0,4.0,48,0.00,,,0.00,WUHU216DAVISVP2,2013-01-25 19:22:00,
2013-01-25 14:27:00,23.5,6.6,30.23,SSE,168,2.0,4.0,48,0.00,,,0.00,WUHU216DAVISVP2,2013-01-25 19:27:00,
2013-01-25 14:33:00,23.6,6.7,30.23,East,96,2.0,4.0,48,0.00,,,0.00,WUHU216DAVISVP2,2013-01-25 19:33:00,
2013-01-25 14:38:00,23.6,6.7,30.22,SW,225,1.0,4.0,48,0.00,,,0.00,WUHU216DAVISVP2,2013-01-25 19:38:00,
2013-01-25 14:42:00,23.5,6.6,30.22,SW,235,0.0,4.0,48,0.00,,,0.00,WUHU216DAVISVP2,2013-01-25 19:42:00,
2013-01-25 14:48:00,23.4,8.7,30.22,NNE,30,0.0,5.0,53,0.00,,,0.00,WUHU216DAVISVP2,2013-01-25 19:48:00,
2013-01-25 14:53:00,23.1,9.3,30.21,East,89,3.0,5.0,55,0.00,,,0.00,WUHU216DAVISVP2,2013-01-25 19:53:00,
2013-01-25 14:58:00,22.8,9.8,30.21,SSW,198,0.0,7.0,57,0.00,,,0.00,WUHU216DAVISVP2,2013-01-25 19:58:00,
2013-01-25 15:03:00,22.3,12.0,30.22,North,360,0.0,7.0,64,0.00,,,0.00,WUHU216DAVISVP2,2013-01-25 20:03:00,
2013-01-25 15:08:00,22.0,13.1,30.22,SSW,205,4.0,7.0,68,0.00,,,0.00,WUHU216DAVISVP2,2013-01-25 20:08:00,
2013-01-25 15:13:00,21.8,12.9,30.22,SW,236,0.0,6.0,68,0.00,,,0.00,WUHU216DAVISVP2,2013-01-25 20:13:00,
2013-01-25 15:18:00,21.8,12.9,30.23,SW,236,0.0,5.0,68,0.00,,,0.00,WUHU216DAVISVP2,2013-01-25 20:18:00,
2013-01-25 15:23:00,21.0,14.9,30.22,SSW,211,2.0,4.0,77,0.00,,,0.00,WUHU216DAVISVP2,2013-01-25 20:23:00,
2013-01-25 15:28:00,20.8,15.3,30.22,South,182,0.0,4.0,79,0.00,,,0.00,WUHU216DAVISVP2,2013-01-25 20:28:00,
2013-01-25 15:33:00,20.6,15.4,30.22,SW,226,3.0,5.0,80,0.00,,,0.00,WUHU216DAVISVP2,2013-01-25 20:33:00,
2013-01-25 15:38:00,20.5,15.6,30.22,SW,223,0.0,5.0,81,0.00,,,0.00,WUHU216DAVISVP2,2013-01-25 20:38:00,
2013-01-25 15:43:00,20.4,15.5,30.21,SW,223,0.0,5.0,81,0.00,,,0.00,WUHU216DAVISVP2,2013-01-25 20:43:00,
2013-01-25 15:48:00,20.4,15.8,30.21,South,184,0.0,5.0,82,0.00,,,0.00,WUHU216DAVISVP2,2013-01-25 20:48:00,
2013-01-25 15:53:00,20.3,15.9,30.20,East,90,1.0,5.0,83,0.00,,,0.00,WUHU216DAVISVP2,2013-01-25 20:53:00,
2013-01-25 15:58:00,20.2,15.8,30.20,West,274,0.0,3.0,83,0.00,,,0.00,WUHU216DAVISVP2,2013-01-25 20:58:00,
2013-01-25 16:03:00,20.2,16.1,30.20,SE,143,0.0,3.0,84,0.00,,,0.00,WUHU216DAVISVP2,2013-01-25 21:03:00,
2013-01-25 16:08:00,20.1,16.0,30.20,ESE,111,0.0,3.0,84,0.00,,,0.00,WUHU216DAVISVP2,2013-01-25 21:08:00,
2013-01-25 16:13:00,20.1,16.3,30.20,ESE,111,0.0,3.0,85,0.00,,,0.00,WUHU216DAVISVP2,2013-01-25 21:13:00,
2013-01-25 16:18:00,20.1,16.6,30.20,SSW,199,0.0,3.0,86,0.00,,,0.00,WUHU216DAVISVP2,2013-01-25 21:18:00,
2013-01-25 16:23:00,20.1,16.6,30.20,South,172,0.0,3.0,86,0.00,,,0.00,WUHU216DAVISVP2,2013-01-25 21:23:00,
2013-01-25 16:28:00,20.0,16.5,30.20,SW,233,0.0,4.0,86,0.00,,,0.00,WUHU216DAVISVP2,2013-01-25 21:28:00,
2013-01-25 16:33:00,20.0,16.8,30.19,ESE,109,1.0,4.0,87,0.00,,,0.00,WUHU216DAVISVP2,2013-01-25 21:33:00,
2013-01-25 16:38:00,20.0,16.7,30.19,ESE,109,0.0,4.0,87,0.00,,,0.00,WUHU216DAVISVP2,2013-01-25 21:38:00,
2013-01-25 16:43:00,20.0,16.7,30.19,ESE,109,0.0,4.0,87,0.00,,,0.00,WUHU216DAVISVP2,2013-01-25 21:43:00,
2013-01-25 16:48:00,20.0,16.8,30.18,East,81,0.0,3.0,87,0.00,,,0.00,WUHU216DAVISVP2,2013-01-25 21:48:00,
2013-01-25 16:53:00,20.0,16.8,30.18,SSE,162,0.0,3.0,87,0.00,,,0.00,WUHU216DAVISVP2,2013-01-25 21:53:00,
2013-01-25 16:58:00,19.9,16.6,30.17,East,83,0.0,3.0,87,0.00,,,0.00,WUHU216DAVISVP2,2013-01-25 21:58:00,
2013-01-25 17:03:00,19.8,16.5,30.16,SSE,164,0.0,3.0,87,0.00,,,0.00,WUHU216DAVISVP2,2013-01-25 22:03:00,
2013-01-25 17:08:00,19.8,16.5,30.17,SSE,157,0.0,3.0,87,0.00,,,0.00,WUHU216DAVISVP2,2013-01-25 22:08:00,
2013-01-25 17:13:00,19.8,16.6,30.17,East,99,1.0,3.0,87,0.00,,,0.00,WUHU216DAVISVP2,2013-01-25 22:13:00,
2013-01-25 17:18:00,19.8,16.8,30.17,ESE,103,0.0,2.0,88,0.00,,,0.00,WUHU216DAVISVP2,2013-01-25 22:18:00,
2013-01-25 17:23:00,19.8,16.8,30.17,ESE,103,1.0,2.0,88,0.00,,,0.00,WUHU216DAVISVP2,2013-01-25 22:23:00,
2013-01-25 17:28:00,19.8,16.8,30.16,ESE,103,2.0,2.0,88,0.00,,,0.00,WUHU216DAVISVP2,2013-01-25 22:28:00,
2013-01-25 17:33:00,19.8,16.8,30.15,ESE,103,0.0,2.0,88,0.00,,,0.00,WUHU216DAVISVP2,2013-01-25 22:33:00,
2013-01-25 17:38:00,19.7,16.7,30.16,ESE,103,0.0,2.0,88,0.00,,,0.00,WUHU216DAVISVP2,2013-01-25 22:38:00,
2013-01-25 17:43:00,19.7,16.7,30.15,SSE,163,0.0,2.0,88,0.00,,,0.00,WUHU216DAVISVP2,2013-01-25 22:43:00,
2013-01-25 17:48:00,19.7,16.7,30.15,SSE,163,0.0,2.0,88,0.00,,,0.00,WUHU216DAVISVP2,2013-01-25 22:48:00,
2013-01-25 17:53:00,19.6,16.6,30.15,SSE,162,0.0,2.0,88,0.00,,,0.00,WUHU216DAVISVP2,2013-01-25 22:53:00,
2013-01-25 17:58:00,19.5,16.5,30.14,SSE,162,0.0,2.0,88,0.00,,,0.00,WUHU216DAVISVP2,2013-01-25 22:58:00,
2013-01-25 18:03:00,19.5,16.5,30.14,SSE,162,0.0,2.0,88,0.00,,,0.00,WUHU216DAVISVP2,2013-01-25 23:03:00,
2013-01-25 18:08:00,19.5,16.5,30.14,SSE,162,0.0,2.0,88,0.00,,,0.00,WUHU216DAVISVP2,2013-01-25 23:08:00,
2013-01-25 18:13:00,19.4,16.4,30.14,SSE,162,0.0,2.0,88,0.00,,,0.00,WUHU216DAVISVP2,2013-01-25 23:13:00,
2013-01-25 18:18:00,19.2,16.2,30.15,SSE,162,0.0,2.0,88,0.00,,,0.00,WUHU216DAVISVP2,2013-01-25 23:18:00,
2013-01-25 18:23:00,19.1,15.8,30.15,SSE,162,0.0,1.0,87,0.00,,,0.00,WUHU216DAVISVP2,2013-01-25 23:23:00,
2013-01-25 18:28:00,18.9,15.9,30.15,SSE,162,0.0,1.0,88,0.00,,,0.00,WUHU216DAVISVP2,2013-01-25 23:28:00,
2013-01-25 18:33:00,18.8,15.8,30.15,SSE,162,0.0,0.0,88,0.00,,,0.00,WUHU216DAVISVP2,2013-01-25 23:33:00,
2013-01-25 18:38:00,18.8,15.8,30.15,SSE,162,0.0,0.0,88,0.00,,,0.00,WUHU216DAVISVP2,2013-01-25 23:38:00,
2013-01-25 18:43:00,18.7,15.7,30.14,SSE,162,0.0,0.0,88,0.00,,,0.00,WUHU216DAVISVP2,2013-01-25 23:43:00,
2013-01-25 18:48:00,18.7,16.0,30.14,SSE,162,0.0,0.0,89,0.00,,,0.00,WUHU216DAVISVP2,2013-01-25 23:48:00,
2013-01-25 18:53:00,18.8,16.0,30.15,SSE,162,0.0,0.0,89,0.00,,,0.00,WUHU216DAVISVP2,2013-01-25 23:53:00,
2013-01-25 18:58:00,18.7,15.7,30.14,SSE,162,0.0,0.0,88,0.00,,,0.00,WUHU216DAVISVP2,2013-01-25 23:58:00,
2013-01-25 19:03:00,18.6,15.6,30.14,SSE,162,0.0,0.0,88,0.00,,,0.00,WUHU216DAVISVP2,2013-01-26 00:03:00,
2013-01-25 19:08:00,18.4,15.4,30.13,SSE,162,0.0,0.0,88,0.00,,,0.00,WUHU216DAVISVP2,2013-01-26 00:08:00,
2013-01-25 19:14:00,18.2,15.2,30.14,SSE,162,0.0,0.0,88,0.00,,,0.00,WUHU216DAVISVP2,2013-01-26 00:14:00,
2013-01-25 19:19:00,18.0,15.0,30.13,SSE,162,0.0,0.0,88,0.00,,,0.00,WUHU216DAVISVP2,2013-01-26 00:19:00,
2013-01-25 19:24:00,17.9,14.9,30.14,SSE,162,0.0,0.0,88,0.00,,,0.00,WUHU216DAVISVP2,2013-01-26 00:24:00,
2013-01-25 19:29:00,17.9,15.2,30.14,SSE,162,0.0,0.0,89,0.00,,,0.00,WUHU216DAVISVP2,2013-01-26 00:29:00,
2013-01-25 19:34:00,18.0,15.5,30.14,SSE,162,0.0,0.0,90,0.00,,,0.00,WUHU216DAVISVP2,2013-01-26 00:34:00,
2013-01-25 19:39:00,18.1,15.6,30.13,SSE,162,0.0,0.0,90,0.00,,,0.00,WUHU216DAVISVP2,2013-01-26 00:39:00,
2013-01-25 19:44:00,18.1,15.6,30.13,SSE,162,0.0,0.0,90,0.00,,,0.00,WUHU216DAVISVP2,2013-01-26 00:44:00,
2013-01-25 19:49:00,18.2,15.7,30.13,SSE,162,0.0,0.0,90,0.00,,,0.00,WUHU216DAVISVP2,2013-01-26 00:49:00,
2013-01-25 19:54:00,18.3,15.8,30.13,SSE,162,0.0,0.0,90,0.00,,,0.00,WUHU216DAVISVP2,2013-01-26 00:54:00,
2013-01-25 19:59:00,18.4,15.9,30.13,SSE,162,0.0,0.0,90,0.00,,,0.00,WUHU216DAVISVP2,2013-01-26 00:59:00,
2013-01-25 20:05:00,18.6,16.1,30.12,SSE,162,0.0,0.0,90,0.00,,,0.00,WUHU216DAVISVP2,2013-01-26 01:05:00,
2013-01-25 20:10:00,18.6,16.1,30.12,SSE,162,0.0,0.0,90,0.00,,,0.00,WUHU216DAVISVP2,2013-01-26 01:10:00,
2013-01-25 20:15:00,18.7,16.2,30.12,SSE,162,0.0,0.0,90,0.00,,,0.00,WUHU216DAVISVP2,2013-01-26 01:15:00,
2013-01-25 20:20:00,18.8,16.6,30.12,SSE,162,0.0,0.0,91,0.00,,,0.00,WUHU216DAVISVP2,2013-01-26 01:20:00,
2013-01-25 20:25:00,18.9,16.7,30.12,SSE,162,0.0,0.0,91,0.00,,,0.00,WUHU216DAVISVP2,2013-01-26 01:25:00,
2013-01-25 20:30:00,19.0,16.8,30.11,SSE,162,0.0,0.0,91,0.00,,,0.00,WUHU216DAVISVP2,2013-01-26 01:30:00,
2013-01-25 20:35:00,19.1,16.6,30.12,SSE,162,0.0,0.0,90,0.00,,,0.00,WUHU216DAVISVP2,2013-01-26 01:35:00,
2013-01-25 20:40:00,19.2,16.7,30.11,SSE,162,0.0,0.0,90,0.00,,,0.00,WUHU216DAVISVP2,2013-01-26 01:40:00,
2013-01-25 20:45:00,19.2,16.7,30.11,SSE,162,0.0,0.0,90,0.00,,,0.00,WUHU216DAVISVP2,2013-01-26 01:45:00,
2013-01-25 20:50:00,19.3,16.8,30.11,SSE,162,0.0,0.0,90,0.00,,,0.00,WUHU216DAVISVP2,2013-01-26 01:50:00,
2013-01-25 20:55:00,19.4,16.9,30.11,SSE,162,0.0,1.0,90,0.00,,,0.00,WUHU216DAVISVP2,2013-01-26 01:55:00,
2013-01-25 21:00:00,19.5,17.0,30.10,SSE,162,0.0,1.0,90,0.00,,,0.00,WUHU216DAVISVP2,2013-01-26 02:00:00,
2013-01-25 21:05:00,19.6,17.1,30.10,SSE,162,0.0,1.0,90,0.00,,,0.00,WUHU216DAVISVP2,2013-01-26 02:05:00,
2013-01-25 21:10:00,19.7,17.2,30.10,SSE,162,0.0,1.0,90,0.00,,,0.00,WUHU216DAVISVP2,2013-01-26 02:10:00,
2013-01-25 21:15:00,19.8,17.3,30.10,SSE,162,0.0,1.0,90,0.00,,,0.00,WUHU216DAVISVP2,2013-01-26 02:15:00,
2013-01-25 21:20:00,19.7,17.2,30.10,SSE,162,0.0,1.0,90,0.00,,,0.00,WUHU216DAVISVP2,2013-01-26 02:20:00,
2013-01-25 21:25:00,19.6,16.8,30.10,SSE,162,0.0,1.0,89,0.00,,,0.00,WUHU216DAVISVP2,2013-01-26 02:25:00,
2013-01-25 21:30:00,19.5,16.7,30.10,SSE,162,0.0,1.0,89,0.00,,,0.00,WUHU216DAVISVP2,2013-01-26 02:30:00,
2013-01-25 21:35:00,19.5,16.7,30.10,SSE,162,0.0,1.0,89,0.00,,,0.00,WUHU216DAVISVP2,2013-01-26 02:35:00,
2013-01-25 21:40:00,19.5,16.7,30.09,SSE,162,0.0,1.0,89,0.00,,,0.00,WUHU216DAVISVP2,2013-01-26 02:40:00,
2013-01-25 21:45:00,19.4,16.6,30.09,SSE,162,0.0,1.0,89,0.00,,,0.00,WUHU216DAVISVP2,2013-01-26 02:45:00,
2013-01-25 21:50:00,19.4,16.6,30.09,SSE,162,0.0,1.0,89,0.00,,,0.00,WUHU216DAVISVP2,2013-01-26 02:50:00,
2013-01-25 21:55:00,19.4,16.6,30.09,SSE,162,0.0,1.0,89,0.00,,,0.00,WUHU216DAVISVP2,2013-01-26 02:55:00,
2013-01-25 22:00:00,19.3,16.8,30.09,SSE,162,0.0,1.0,90,0.00,,,0.00,WUHU216DAVISVP2,2013-01-26 03:00:00,
2013-01-25 22:05:00,19.3,16.8,30.09,SSE,162,0.0,1.0,90,0.00,,,0.00,WUHU216DAVISVP2,2013-01-26 03:05:00,
2013-01-25 22:10:00,19.4,16.9,30.09,SSE,162,0.0,1.0,90,0.00,,,0.00,WUHU216DAVISVP2,2013-01-26 03:10:00,
2013-01-25 22:15:00,19.4,16.9,30.10,SSE,162,0.0,1.0,90,0.00,,,0.00,WUHU216DAVISVP2,2013-01-26 03:15:00,
2013-01-25 22:20:00,19.5,17.0,30.10,SSE,162,0.0,1.0,90,0.00,,,0.00,WUHU216DAVISVP2,2013-01-26 03:20:00,
2013-01-25 22:25:00,19.5,17.0,30.10,SSE,162,0.0,1.0,90,0.00,,,0.00,WUHU216DAVISVP2,2013-01-26 03:25:00,
2013-01-25 22:30:00,19.5,17.0,30.10,SSE,162,0.0,1.0,90,0.00,,,0.00,WUHU216DAVISVP2,2013-01-26 03:30:00,
2013-01-25 22:35:00,19.5,17.0,30.10,SSE,162,0.0,0.0,90,0.00,,,0.00,WUHU216DAVISVP2,2013-01-26 03:35:00,
2013-01-25 22:40:00,19.7,17.2,30.09,SSE,162,0.0,1.0,90,0.00,,,0.00,WUHU216DAVISVP2,2013-01-26 03:40:00,
2013-01-25 22:45:00,19.8,17.3,30.10,SSW,196,1.0,3.0,90,0.00,,,0.00,WUHU216DAVISVP2,2013-01-26 03:45:00,
2013-01-25 22:50:00,19.9,17.4,30.09,SSW,196,0.0,3.0,90,0.00,,,0.00,WUHU216DAVISVP2,2013-01-26 03:50:00,
2013-01-25 22:55:00,20.0,17.5,30.09,SSW,206,2.0,3.0,90,0.00,,,0.00,WUHU216DAVISVP2,2013-01-26 03:55:00,
2013-01-25 23:00:00,20.0,17.5,30.09,SSW,206,0.0,3.0,90,0.00,,,0.00,WUHU216DAVISVP2,2013-01-26 04:00:00,
2013-01-25 23:05:00,20.2,17.7,30.10,SSW,207,1.0,3.0,90,0.00,,,0.00,WUHU216DAVISVP2,2013-01-26 04:05:00,
2013-01-25 23:10:00,20.2,17.4,30.10,SSW,207,0.0,3.0,89,0.00,,,0.00,WUHU216DAVISVP2,2013-01-26 04:10:00,
2013-01-25 23:15:00,20.2,17.4,30.09,SSW,207,0.0,3.0,89,0.00,,,0.00,WUHU216DAVISVP2,2013-01-26 04:15:00,
2013-01-25 23:20:00,20.2,17.4,30.10,SSW,207,0.0,2.0,89,0.00,,,0.00,WUHU216DAVISVP2,2013-01-26 04:20:00,
2013-01-25 23:25:00,20.3,17.5,30.10,SSW,207,0.0,2.0,89,0.00,,,0.00,WUHU216DAVISVP2,2013-01-26 04:25:00,
2013-01-25 23:30:00,20.3,17.5,30.10,SSW,207,0.0,2.0,89,0.00,,,0.00,WUHU216DAVISVP2,2013-01-26 04:30:00,
2013-01-25 23:35:00,20.3,17.5,30.10,SSW,207,0.0,2.0,89,0.00,,,0.00,WUHU216DAVISVP2,2013-01-26 04:35:00,
2013-01-25 23:40:00,20.3,17.5,30.10,SSW,207,0.0,1.0,89,0.00,,,0.00,WUHU216DAVISVP2,2013-01-26 04:40:00,
2013-01-25 23:45:00,20.3,17.5,30.10,SSW,207,0.0,1.0,89,0.00,,,0.00,WUHU216DAVISVP2,2013-01-26 04:45:00,
2013-01-25 23:50:00,20.3,17.5,30.11,SSW,207,0.0,1.0,89,0.00,,,0.00,WUHU216DAVISVP2,2013-01-26 04:50:00,
2013-01-25 23:55:00,20.3,17.5,30.10,SSW,207,0.0,1.0,89,0.00,,,0.00,WUHU216DAVISVP2,2013-01-26 04:55:00,